Wind_Speed
11 11 11 11 11 10 10 10 10 10 10 10 10 9 10 10 10 10 10 10 10 10 10 11 10 10 10 10 10 10 10 10 10 11 11 11 11 12 12 12 12 12 12 13
11 11 11 11 11 11 11 11 11 11 12 12 11 11 11 12 12 12 12 12 12 11 12 12 12 12 12 11 11 11 11 11 11 11 11 11 12 13 13 12 12 12 13 12
12 12 12 12 12 12 12 13 13 13 13 13 14 13 13 13 13 13 13 13 13 12 13 13 13 13 13 13 12 12 12 13 13 13 13 12 13 13 13 13 12 12 13 13
11 12 12 12 12 12 13 13 14 14 14 14 15 14 13 13 13 13 13 14 14 13 14 13 13 13 14 14 14 13 14 14 14 14 14 14 14 14 14 13 12 12 13 13
10 11 11 12 12 13 13 14 14 15 15 15 15 15 13 13 13 13 13 14 14 14 14 14 14 14 15 15 14 14 14 14 15 15 14 15 15 15 15 14 13 13 14 14
11 11 12 12 12 13 14 15 15 15 16 15 15 15 13 13 13 13 14 14 14 14 15 15 15 15 15 15 15 15 15 15 16 15 15 15 16 16 15 15 14 15 15 15
12 12 13 13 13 13 14 15 16 16 15 15 15 15 14 14 14 14 14 15 15 15 15 15 16 16 16 16 16 16 16 16 16 16 16 16 16 17 17 16 16 16 16 16
13 13 14 14 14 14 14 15 16 17 16 16 16 16 16 16 16 16 16 16 16 16 16 16 16 17 17 16 16 16 16 17 17 17 17 17 17 17 18 17 16 16 17 16
14 13 14 14 15 15 15 16 17 18 18 18 17 17 16 16 16 16 16 17 16 16 16 16 16 16 17 17 17 17 18 18 18 18 18 18 18 18 19 18 18 17 18 18
14 14 14 15 15 15 16 17 18 19 20 19 18 17 16 17 17 17 17 17 17 17 17 17 17 18 18 18 18 18 19 19 19 19 19 19 19 19 19 18 18 18 19 19
15 15 15 16 16 16 17 18 19 20 20 20 19 17 17 17 18 18 18 18 18 18 18 18 19 19 19 19 18 18 19 20 20 20 19 19 20 20 19 19 19 19 19 19
17 17 16 16 17 17 18 18 19 20 20 21 21 19 18 19 19 19 19 19 19 19 19 20 20 20 20 20 19 19 20 20 21 20 20 21 21 21 21 20 19 19 20 20
18 18 18 17 18 18 18 19 20 21 21 21 21 20 20 21 21 21 21 20 20 20 21 21 21 21 21 21 21 22 22 22 21 20 20 21 22 21 22 21 21 21 21 21
19 20 20 19 19 19 20 20 20 22 22 22 21 21 20 22 22 22 22 22 22 21 21 21 21 22 22 22 22 23 23 23 22 21 21 21 22 21 22 22 22 22 22 23
20 20 21 21 21 21 21 21 21 22 22 23 22 21 20 21 22 22 22 23 22 22 22 22 23 23 22 23 23 23 24 24 24 23 23 22 22 22 22 23 23 23 23 24
21 22 23 22 22 22 22 21 22 22 23 23 23 22 23 23 23 22 23 23 23 23 23 23 23 23 23 24 24 24 25 25 24 24 24 24 24 24 24 24 24 24 24 24
22 22 23 22 22 22 21 20 22 22 22 23 23 23 24 24 24 24 24 24 24 24 24 24 24 25 25 25 26 25 26 26 26 25 26 26 27 27 26 27 27 27 26 26
23 23 24 23 23 24 22 21 22 23 22 22 23 24 24 24 24 24 25 25 25 25 25 25 26 26 27 27 27 26 26 27 27 27 27 27 28 28 28 28 28 29 29 28
24 24 25 25 25 24 22 22 22 23 23 23 24 24 24 24 24 24 25 25 25 26 26 27 27 28 27 27 27 26 27 27 28 28 28 29 29 30 30 29 29 29 29 29
25 25 26 25 26 25 24 23 23 24 23 23 24 25 25 25 25 25 26 26 27 28 28 28 28 28 28 28 28 27 27 27 27 28 27 28 29 30 30 30 30 29 29 29
25 26 26 26 27 26 25 25 24 24 24 24 25 25 26 26 26 27 27 28 28 29 29 29 29 28 28 28 28 28 28 28 28 28 29 29 29 29 30 30 29 28 28 28
25 26 26 26 27 26 26 25 25 25 25 25 26 26 27 27 27 28 28 28 28 28 28 28 28 28 28 28 28 28 29 29 30 30 31 30 30 30 30 29 29 29 29 28
26 26 26 27 27 27 26 26 26 26 26 26 26 27 27 27 27 27 27 27 27 27 27 28 28 28 28 28 29 30 30 30 31 31 30 30 30 30 30 30 30 30 29 28
27 26 27 27 27 28 27 28 28 27 27 27 27 27 27 26 26 26 27 27 26 26 27 28 28 27 27 28 30 30 31 31 31 31 31 31 31 31 30 30 30 29 28 28
27 27 28 28 28 29 28 28 29 29 28 28 28 27 27 26 26 27 27 27 27 27 28 28 28 27 28 29 30 30 30 31 31 31 31 31 31 31 31 30 29 29 28 28
27 28 29 29 28 29 29 28 29 29 29 28 28 28 28 28 27 28 28 28 28 28 28 27 27 28 29 29 30 30 31 31 32 32 32 32 32 31 31 30 30 30 29 28
Wind_Direction
264 261 260 263 266 268 270 272 273 270 272 276 280 282 285 287 289 291 288 288 291 292 292 295 296 299 300 298 296 297 296 293 291 289 287 285 281 279 279 279 279 278 280 280
262 259 261 263 265 268 270 272 274 273 273 275 279 281 284 286 286 286 287 287 288 288 288 291 293 296 297 295 293 293 294 292 290 290 290 288 285 281 279 279 279 277 279 278
266 263 263 263 264 267 269 273 273 276 277 277 279 280 282 283 284 285 285 286 287 287 286 288 290 293 294 293 292 292 293 292 289 287 288 289 288 284 282 280 276 277 281 279
266 264 263 263 264 267 270 272 272 275 276 277 280 280 281 284 284 284 284 284 285 285 284 287 290 290 291 291 290 291 292 294 291 289 288 286 287 285 283 280 275 275 280 281
267 264 265 264 266 270 271 273 272 275 276 278 281 285 284 285 283 284 284 284 285 285 286 288 290 290 290 290 289 291 293 294 294 292 290 285 284 284 281 278 274 275 277 278
266 265 265 266 269 272 272 273 274 277 278 279 282 284 285 285 287 287 287 285 285 285 286 288 289 289 289 289 289 291 293 294 294 293 290 288 285 283 282 277 276 276 276 276
267 266 267 269 272 274 274 275 276 276 279 282 283 283 286 284 283 285 287 284 283 285 286 288 288 288 289 289 288 289 292 295 295 293 290 287 285 282 281 277 275 274 273 275
267 269 271 272 272 274 274 276 277 279 281 283 283 284 286 284 282 283 284 284 284 286 288 288 287 287 287 287 288 289 291 295 296 295 294 287 285 281 278 276 274 273 273 276
270 271 273 273 272 273 274 275 278 280 284 283 284 285 283 283 282 282 284 284 284 286 287 288 288 287 287 288 289 289 290 292 295 296 294 289 284 282 278 275 273 275 275 274
273 274 273 274 275 275 276 277 277 280 284 285 284 285 286 284 284 283 282 283 284 286 287 288 289 288 288 288 289 291 292 293 295 296 293 289 285 283 281 278 274 275 275 274
274 275 276 273 274 277 278 279 279 280 282 285 286 285 286 285 284 282 281 282 283 286 287 288 292 291 288 287 289 292 293 293 295 296 293 289 287 283 281 281 277 276 276 275
276 276 278 278 274 275 279 282 281 279 280 282 286 287 284 283 285 285 283 284 284 285 287 289 290 291 290 289 288 291 293 294 295 294 292 290 288 286 283 281 280 277 276 275
280 280 278 279 278 276 279 281 280 279 278 280 283 287 286 282 283 285 285 285 285 286 286 288 290 291 292 291 289 288 291 293 293 292 291 289 288 287 285 283 281 279 278 276
279 281 280 281 282 281 281 278 277 278 278 280 282 285 284 283 283 284 283 283 284 284 284 285 286 289 291 292 291 289 290 290 291 290 290 289 288 287 285 284 283 281 279 279
278 280 281 283 284 283 283 280 278 279 279 279 281 283 284 283 283 283 283 283 283 283 284 285 285 287 289 291 292 292 291 291 290 289 289 288 289 287 287 285 284 282 280 279
277 279 280 282 283 284 283 280 280 283 282 280 280 280 281 282 284 284 283 282 282 284 284 285 287 288 288 290 290 290 289 289 288 287 287 286 288 287 286 285 284 283 281 280
277 278 279 281 281 283 282 283 282 284 285 282 281 280 280 283 284 284 283 283 282 282 284 285 286 287 287 289 290 290 289 287 286 285 286 286 286 286 285 285 284 282 280 278
278 277 278 281 282 282 285 283 283 284 284 284 283 280 281 283 283 284 285 284 283 283 284 285 286 286 288 289 289 288 288 287 286 284 284 285 285 287 286 285 284 283 282 280
278 277 278 280 282 284 284 285 285 285 284 284 283 282 281 282 282 282 283 284 283 283 284 285 286 287 288 289 290 290 290 289 287 285 285 286 286 287 286 285 285 283 283 282
278 277 277 279 282 284 285 285 285 285 284 283 283 283 281 282 282 282 283 284 284 283 283 284 285 285 286 287 289 290 290 290 289 289 288 287 287 288 286 285 284 283 283 283
278 277 277 278 280 282 284 285 284 283 284 283 283 282 281 282 283 283 284 285 285 284 284 285 285 285 285 287 289 290 291 291 289 288 290 289 288 288 287 285 283 282 282 283
278 278 278 278 278 281 281 281 281 282 284 285 285 284 283 283 284 285 285 285 286 286 286 286 286 286 285 287 289 290 290 291 291 289 289 289 288 288 289 286 283 282 282 282
278 280 279 277 277 278 279 277 278 280 282 284 285 286 285 285 285 285 286 286 286 287 287 287 286 286 286 287 288 289 291 291 291 290 288 288 287 288 289 287 284 282 281 280
277 279 278 277 275 276 277 277 277 279 281 283 285 286 287 287 286 286 288 288 287 288 288 287 287 286 287 288 289 290 290 291 291 289 289 288 287 286 287 287 284 281 280 280
279 279 278 277 275 274 275 276 278 279 281 282 282 283 285 286 287 288 289 289 288 289 289 289 288 289 289 289 290 290 290 290 290 289 288 288 287 286 286 285 285 283 281 280
279 277 277 277 274 272 272 275 277 279 279 280 282 282 284 286 286 287 288 288 288 288 289 288 287 288 289 290 290 291 291 291 291 290 289 288 287 286 285 284 284 284 282 280
Height
5840 5841 5841 5842 5842 5843 5843 5843 5843 5843 5843 5843 5843 5843 5842 5841 5840 5840 5839 5838 5837 5836 5836 5835 5834 5833 5832 5831 5829 5828 5827 5826 5826 5825 5824 5823 5822 5822 5821 5821 5820 5820 5819 5819
5838 5839 5839 5839 5840 5840 5840 5841 5841 5841 5841 5841 5840 5841 5840 5839 5838 5837 5836 5835 5834 5834 5833 5832 5831 5830 5829 5828 5827 5826 5825 5824 5823 5822 5821 5820 5819 5818 5818 5817 5817 5816 5816 5815
5835 5837 5836 5837 5837 5838 5838 5838 5838 5838 5838 5838 5838 5838 5837 5836 5835 5834 5833 5832 5831 5831 5830 5829 5828 5827 5826 5825 5824 5823 5821 5820 5819 5818 5818 5817 5816 5815 5814 5814 5813 5813 5813 5812
5833 5833 5834 5834 5835 5835 5835 5835 5835 5835 5835 5835 5835 5835 5835 5833 5832 5831 5830 5829 5828 5827 5826 5825 5824 5823 5822 5821 5820 5819 5818 5817 5815 5814 5814 5813 5812 5811 5811 5810 5810 5809 5809 5809
5830 5831 5831 5832 5832 5832 5832 5832 5832 5832 5831 5831 5831 5831 5832 5830 5829 5828 5827 5826 5825 5824 5823 5822 5821 5820 5819 5818 5816 5815 5814 5812 5811 5810 5809 5808 5808 5807 5807 5806 5806 5806 5805 5805
5828 5828 5828 5829 5829 5829 5829 5829 5829 5828 5828 5829 5828 5828 5828 5827 5826 5825 5824 5823 5822 5821 5820 5819 5817 5816 5815 5814 5812 5811 5810 5808 5807 5806 5805 5804 5803 5803 5802 5802 5802 5802 5801 5801
5825 5826 5826 5826 5826 5826 5826 5826 5826 5825 5825 5825 5824 5824 5825 5823 5822 5821 5820 5819 5818 5817 5816 5815 5814 5812 5811 5810 5809 5807 5806 5804 5803 5801 5800 5800 5799 5799 5798 5798 5798 5798 5797 5797
5822 5823 5823 5823 5823 5822 5822 5822 5823 5822 5822 5821 5820 5820 5821 5820 5819 5818 5817 5816 5815 5814 5813 5811 5810 5808 5807 5806 5804 5803 5802 5800 5799 5798 5796 5795 5795 5794 5794 5793 5793 5793 5793 5792
5819 5820 5820 5819 5819 5819 5819 5818 5818 5818 5817 5817 5817 5816 5816 5815 5814 5814 5813 5812 5811 5810 5809 5807 5806 5804 5803 5801 5800 5799 5798 5796 5795 5793 5792 5791 5790 5789 5789 5789 5788 5788 5788 5787
5815 5816 5816 5816 5816 5815 5815 5814 5814 5813 5812 5812 5812 5812 5812 5811 5810 5809 5809 5808 5807 5806 5804 5803 5801 5800 5798 5797 5796 5794 5793 5792 5790 5789 5787 5786 5785 5784 5784 5783 5783 5783 5782 5782
5812 5812 5813 5812 5811 5811 5811 5810 5809 5808 5808 5807 5807 5810 5808 5806 5805 5805 5804 5803 5802 5801 5800 5798 5797 5795 5794 5792 5791 5790 5788 5787 5785 5784 5782 5781 5780 5779 5779 5778 5778 5777 5777 5776
5808 5808 5808 5808 5807 5806 5806 5805 5804 5804 5803 5802 5802 5806 5802 5801 5800 5799 5799 5798 5797 5796 5795 5794 5792 5790 5789 5787 5786 5785 5783 5782 5780 5779 5777 5776 5775 5774 5773 5773 5772 5772 5771 5771
5803 5803 5803 5803 5804 5803 5801 5800 5799 5799 5798 5797 5797 5800 5797 5796 5795 5794 5793 5793 5792 5791 5790 5788 5787 5785 5784 5782 5781 5779 5778 5776 5775 5773 5772 5770 5769 5768 5767 5766 5766 5766 5765 5764
5799 5798 5799 5799 5797 5796 5796 5795 5794 5793 5792 5792 5792 5793 5792 5790 5789 5788 5787 5786 5786 5785 5784 5783 5781 5780 5778 5776 5775 5773 5772 5770 5769 5767 5766 5765 5763 5762 5761 5760 5760 5759 5758 5758
5793 5793 5793 5792 5791 5790 5790 5789 5788 5788 5787 5787 5787 5787 5786 5784 5783 5782 5781 5780 5779 5779 5778 5777 5776 5774 5772 5771 5769 5767 5766 5764 5762 5761 5760 5759 5757 5756 5755 5754 5753 5752 5751 5751
5788 5788 5787 5787 5786 5784 5784 5784 5783 5782 5782 5781 5781 5781 5780 5778 5777 5777 5775 5774 5773 5772 5771 5770 5769 5768 5766 5764 5763 5761 5759 5758 5756 5754 5753 5752 5750 5749 5748 5747 5746 5745 5744 5743
5783 5782 5781 5781 5780 5779 5779 5779 5778 5777 5776 5776 5775 5775 5773 5772 5771 5770 5769 5768 5767 5766 5765 5763 5762 5761 5759 5758 5756 5754 5752 5751 5749 5747 5746 5745 5744 5742 5741 5740 5738 5737 5736 5735
5777 5776 5775 5774 5774 5773 5776 5773 5772 5771 5770 5770 5769 5768 5767 5766 5765 5764 5763 5761 5760 5759 5758 5756 5755 5753 5752 5750 5748 5746 5745 5743 5741 5740 5738 5737 5736 5734 5733 5732 5730 5729 5727 5727
5771 5770 5769 5768 5767 5766 5768 5767 5766 5765 5764 5763 5762 5761 5760 5759 5758 5757 5756 5754 5753 5752 5750 5749 5747 5745 5744 5742 5740 5739 5737 5735 5733 5732 5730 5729 5727 5726 5724 5723 5721 5720 5719 5718
5764 5763 5763 5762 5760 5760 5762 5761 5759 5759 5758 5757 5755 5754 5753 5752 5751 5751 5749 5747 5745 5744 5742 5741 5739 5737 5736 5734 5732 5731 5729 5727 5725 5724 5722 5720 5719 5717 5715 5714 5712 5711 5710 5708
5757 5756 5756 5755 5753 5754 5755 5753 5752 5752 5752 5750 5748 5747 5746 5745 5744 5743 5741 5739 5738 5736 5734 5733 5731 5729 5728 5726 5725 5723 5721 5719 5717 5715 5713 5712 5710 5708 5706 5704 5703 5701 5700 5699
5749 5749 5748 5748 5747 5749 5747 5745 5745 5745 5743 5742 5741 5739 5738 5737 5736 5734 5733 5731 5729 5728 5726 5724 5723 5721 5720 5718 5716 5715 5713 5711 5708 5706 5704 5703 5701 5699 5697 5695 5693 5692 5691 5690
5742 5742 5741 5741 5742 5740 5738 5737 5737 5736 5735 5734 5733 5732 5731 5729 5728 5727 5725 5723 5721 5720 5718 5716 5715 5713 5712 5710 5708 5706 5704 5702 5700 5697 5695 5693 5691 5690 5687 5686 5684 5683 5681 5680
5735 5734 5733 5732 5733 5732 5730 5729 5728 5728 5727 5726 5725 5724 5723 5721 5720 5719 5717 5715 5713 5712 5710 5708 5706 5705 5703 5701 5699 5697 5695 5693 5690 5688 5686 5684 5682 5680 5678 5676 5675 5673 5672 5671
5727 5726 5725 5724 5724 5723 5722 5721 5720 5720 5719 5718 5717 5716 5715 5713 5712 5711 5709 5707 5706 5704 5702 5700 5698 5696 5694 5692 5690 5688 5685 5683 5681 5679 5676 5674 5672 5670 5668 5667 5665 5664 5663 5661
5719 5717 5716 5716 5715 5714 5714 5713 5712 5711 5711 5710 5709 5708 5707 5705 5704 5703 5701 5699 5697 5696 5693 5691 5689 5688 5686 5683 5681 5678 5676 5674 5671 5668 5666 5664 5662 5660 5658 5657 5655 5654 5653 5652